This demonstration page uses our WeatherBlox Daily Observations layout. Learn more.

Left ArrowRight Arrow

44.8408, -93.29828

Hourly Observations for December 25, 2019

Temp ( °F °C ) Dew Point ( °F °C ) Humidity (%) Winds ( mph kmh ) Pressure ( in mb ) Visibility ( mi km ) Precip ( " mm )
12:31 am 00:31 Cloudy with Mist and Fog 32 0 31 -0.6 96 96 NNE 6 9 29.85 1011 4 6 0.00 0.00
12:53 am 00:53 Cloudy with Mist and Fog 33 0.6 31 -0.6 92 92 N 6 9 29.83 1010 4 6 0.00 0.00
1:53 am 01:53 Cloudy with Mist and Fog 32 0 32 0 100 100 NNE 6 9 29.83 1010 3 5 0.00 0.00
2:38 am 02:38 Cloudy with Mist and Fog 32 0 32 0 100 100 NE 6 9 29.85 1011 3 5 0.00 0.00
2:53 am 02:53 Cloudy with Mist and Fog 32 0 32 0 100 100 ENE 7 11 29.83 1010 3 5 0.00 0.00
3:53 am 03:53 Cloudy with Mist and Fog 32 0 32 0 100 100 ENE 7 11 29.81 1010 3 5 0.00 0.00
4:53 am 04:53 Cloudy with Mist and Fog 32 0 32 0 100 100 E 8 13 29.80 1009 3 5 0.00 0.00
5:53 am 05:53 Cloudy with Mist and Fog 31 -0.6 31 -0.6 100 100 ENE 9 15 29.78 1008 3 5 0.00 0.00
6:45 am 06:45 Cloudy with Mist and Fog 31 -0.6 31 -0.6 100 100 ENE 6 9 29.82 1010 4 6 0.00 0.00
6:53 am 06:53 Cloudy with Mist and Fog 31 -0.6 31 -0.6 100 100 ENE 5 7 29.79 1009 4 6 0.00 0.00
7:13 am 07:13 Cloudy with Mist and Fog 31 -0.6 31 -0.6 100 100 NE 7 11 29.82 1010 4 6 0.00 0.00
7:53 am 07:53 Cloudy with Mist and Fog 31 -0.6 31 -0.6 100 100 E 8 13 29.80 1009 4 6 0.00 0.00
8:25 am 08:25 Cloudy with Mist and Fog 31 -0.6 31 -0.6 100 100 E 8 13 29.83 1010 3 4 0.00 0.00
8:53 am 08:53 Cloudy with Mist and Fog 31 -0.6 31 -0.6 100 100 ENE 7 11 29.81 1010 3 4 0.00 0.00
9:53 am 09:53 Cloudy with Mist and Fog 31 -0.6 31 -0.6 100 100 ENE 7 11 29.82 1010 2 3 0.00 0.00
10:31 am 10:31 Cloudy with Mist and Fog 31 -0.6 31 -0.6 100 100 ENE 8 13 29.85 1011 2 3 0.00 0.00
10:42 am 10:42 Cloudy with Mist and Fog 31 -0.6 31 -0.6 100 100 ENE 10 17 29.84 1010 2 3 0.00 0.00
10:53 am 10:53 Cloudy with Mist and Fog 31 -0.6 31 -0.6 100 100 ENE 8 13 29.82 1010 2 3 0.00 0.00
11:02 am 11:02 Cloudy with Mist and Fog 31 -0.6 31 -0.6 100 100 ENE 13 20 29.81 1009 1 2 0.00 0.00
11:53 am 11:53 Cloudy with Mist and Fog 31 -0.6 31 -0.6 100 100 E 10 17 29.78 1009 1 2 0.00 0.00
12:37 pm 12:37 Cloudy with Mist and Fog 32 0 32 0 100 100 ENE 8 13 29.80 1009 1 2 0.00 0.00
12:44 pm 12:44 Cloudy with Mist and Fog 32 0 32 0 100 100 ENE 8 13 29.80 1009 2 3 0.00 0.00
12:53 pm 12:53 Cloudy with Mist and Fog 32 0 32 0 100 100 ENE 7 11 29.77 1008 2 3 0.00 0.00
1:08 pm 13:08 Cloudy with Mist and Fog 32 0 32 0 100 100 ENE 9 15 29.80 1009 3 5 0.00 0.00
1:53 pm 13:53 Cloudy with Mist and Fog 32 0 32 0 100 100 ENE 9 15 29.76 1008 3 5 0.00 0.00
2:53 pm 14:53 Cloudy with Mist and Fog 32 0 32 0 100 100 E 9 15 29.76 1008 3 5 0.00 0.00
3:53 pm 15:53 Cloudy with Mist and Fog 32 0 32 0 100 100 E 12 19 29.77 1008 3 5 0.00 0.00
4:53 pm 16:53 Cloudy with Mist and Fog 32 0 32 0 100 100 E 10 17 29.78 1008 3 5 0.00 0.00
5:53 pm 17:53 Cloudy with Mist and Fog 32 0 32 0 100 100 E 8 13 29.80 1009 4 6 0.00 0.00
6:53 pm 18:53 Cloudy with Mist and Fog 32 0 32 0 100 100 E 8 13 29.79 1009 4 6 0.00 0.00
7:53 pm 19:53 Cloudy with Mist and Fog 31 -0.6 31 -0.6 100 100 ESE 9 15 29.78 1008 4 6 0.00 0.00
8:00 pm 20:00 Cloudy with Mist and Fog 31 -0.6 31 -0.6 100 100 ESE 10 17 29.80 1009 4 6 0.00 0.00
8:53 pm 20:53 Cloudy with Mist and Fog 31 -0.6 31 -0.6 100 100 E 9 15 29.78 1008 3 5 0.00 0.00
9:21 pm 21:21 Cloudy with Mist and Fog 31 -0.6 31 -0.6 100 100 E 7 11 29.79 1009 3 4 0.00 0.00
9:53 pm 21:53 Cloudy with Mist and Fog 31 -0.6 31 -0.6 100 100 ESE 9 15 29.76 1008 2 3 0.00 0.00
10:14 pm 22:14 Cloudy with Mist and Fog 31 -0.6 31 -0.6 100 100 ESE 9 15 29.79 1009 2 2 0.00 0.00
10:53 pm 22:53 Cloudy with Mist and Fog 30 -1.1 30 -1.1 100 100 ESE 6 9 29.76 1008 1 2 0.00 0.00
11:06 pm 23:06 Mostly Cloudy with Mist and Fog 30 -1.1 30 -1.1 100 100 ESE 7 11 29.78 1008 1 1 0.00 0.00
11:53 pm 23:53 Mostly Cloudy with Freezing Fog 30 -1.1 30 -1.1 100 100 Calm 29.76 1008 1 1 0.00 0.00

Powered by AerisWeather